Hourly Data Report for October 03, 2017

All times are specified in Local Standard Time (LST). Add 1 hour to adjust for Daylight Saving Time where and when it is observed.

OTTAWA INTL A
ONTARIO

45°19'00.000" N
75°40'00.000" W
114.90 m
6106001
71628
YOW

Download Data

Hourly Data (October 2017)
Hourly Data Report for October 3, 2017
Temp Definition
°C
Dew Point Temp Definition
°C
Rel Hum Definition
%
Wind Dir Definition
10's deg

Wind Spd Definition
km/h
Visibility Definition
km
Stn Press Definition
kPa
Hmdx Definition


Wind Chill Definition


Weather Definition


TIME
00:00 Legend Double Dagger 8.6 6.5 86 5 11 24.1 101.78     LegendNANA
01:00 Legend Double Dagger 8.6 6.7 88 4 9 24.1 101.82     Mainly Clear
02:00 Legend Double Dagger 7.5 5.9 89 8 9 24.1 101.78     LegendNANA
03:00 Legend Double Dagger 6.4 5.2 92 6 8 24.1 101.83     LegendNANA
04:00 Legend Double Dagger 6.0 5.1 94 4 10 24.1 101.83     Mainly Clear
05:00 Legend Double Dagger 5.8 5.0 95 6 9 24.1 101.85     LegendNANA
06:00 Legend Double Dagger 5.8 5.2 95 9 9 24.1 101.88     LegendNANA
07:00 Legend Double Dagger 7.1 6.2 94 10 9 24.1 101.90     Clear
08:00 Legend Double Dagger 10.3 8.0 86 10 10 24.1 101.95     LegendNANA
09:00 Legend Double Dagger 13.6 7.9 68 16 9 24.1 101.93     LegendNANA
10:00 Legend Double Dagger 16.5 8.4 59 20 17 24.1 101.87     Clear
11:00 Legend Double Dagger 18.6 9.4 55 18 12 24.1 101.80     LegendNANA
12:00 Legend Double Dagger 20.9 9.1 46 20 16 24.1 101.73     LegendNANA
13:00 Legend Double Dagger 21.9 9.5 45 18 19 24.1 101.67     Mainly Clear
14:00 Legend Double Dagger 22.7 9.7 43 19 17 24.1 101.64     LegendNANA
15:00 Legend Double Dagger 22.7 9.4 42 17 19 24.1 101.53     LegendNANA
16:00 Legend Double Dagger 21.6 8.8 43 18 22 24.1 101.51     Mainly Clear
17:00 Legend Double Dagger 20.2 8.6 47 19 21 24.1 101.47     LegendNANA
18:00 Legend Double Dagger 17.0 9.5 61 19 9 24.1 101.45     LegendNANA
19:00 Legend Double Dagger 16.1 9.7 66 19 9 24.1 101.45     Clear
20:00 Legend Double Dagger 14.8 9.5 70 18 6 24.1 101.44     LegendNANA
21:00 Legend Double Dagger 13.0 8.7 75 15 7 24.1 101.43     LegendNANA
22:00 Legend Double Dagger 12.1 9.2 82 15 11 24.1 101.34     Mainly Clear
23:00 Legend Double Dagger 12.7 9.6 81 18 7 24.1 101.32     LegendNANA

Notes on Data Quality.

Legend

  • E = Estimated
  • M = Missing
  • NA = Not Available
  • ‡ = Partner data that is not subject to review by the National Climate Archives
Date modified: